When you browse on this site, cookies collect data to enhance your experience and personalize the content and advertising you see.
Visit our Privacy Policy to learn more. By continuing to use the site, you agree to this use of cookies and data.
  • In Hungary
  • List of Countries
  • For 7 days
  • Water Temperature
  • Satellite Maps
  • Weather Map
  • News
  • Weather Widgets
  • user-avatar
    Login

    Hourly Weather Katesh

    Today, 10 December, Monday

    Time Temperature Precipitation Wind Pressure Humidity
    00:00 +21°C° 0.7 mm 1 mps 633 mmHg 80%
    01:00 +20°C° 0.7 mm 1 mps 633 mmHg 81%
    02:00 +20°C° 0.7 mm 1 mps 633 mmHg 83%
    03:00 +20°C° 0.2 mm 1 mps 633 mmHg 84%
    04:00 +20°C° 0.2 mm 1 mps 633 mmHg 85%
    05:00 +19°C° 0.2 mm 1 mps 633 mmHg 86%
    06:00 +20°C° 0.5 mm 1 mps 633 mmHg 81%
    07:00 +21°C° 0.5 mm 2 mps 634 mmHg 75%
    08:00 +23°C° 0.5 mm 2 mps 635 mmHg 70%
    09:00 +24°C° 1.1 mm 2 mps 635 mmHg 66%
    10:00 +25°C° 1.1 mm 2 mps 635 mmHg 62%
    11:00 +26°C° 1.1 mm 2 mps 635 mmHg 58%
    12:00 +26°C° 1.8 mm 2 mps 634 mmHg 59%
    13:00 +26°C° 1.8 mm 2 mps 633 mmHg 60%
    14:00 +26°C° 1.8 mm 2 mps 633 mmHg 61%
    15:00 +25°C° 2.2 mm 2 mps 632 mmHg 67%
    16:00 +23°C° 2.2 mm 2 mps 632 mmHg 72%
    17:00 +21°C° 2.2 mm 2 mps 632 mmHg 78%
    18:00 +21°C° 1 mm 2 mps 632 mmHg 79%
    19:00 +20°C° 1 mm 2 mps 632 mmHg 81%
    20:00 +19°C° 1 mm 2 mps 633 mmHg 83%
    21:00 +19°C° 0.5 mm 2 mps 633 mmHg 84%
    22:00 +20°C° 0.5 mm 1 mps 633 mmHg 86%
    23:00 +19°C° 0.5 mm 1 mps 633 mmHg 87%

    Tomorrow, 11 December, Tuesday

    Time Temperature Precipitation Wind Pressure Humidity
    00:00 +19°C° 0.6 mm 1 mps 633 mmHg 88%
    01:00 +19°C° 0.6 mm 1 mps 632 mmHg 88%
    02:00 +19°C° 0.6 mm 1 mps 632 mmHg 88%
    03:00 +19°C° 0.6 mm 1 mps 632 mmHg 88%
    04:00 +19°C° 0.6 mm 1 mps 632 mmHg 88%
    05:00 +19°C° 0.6 mm 1 mps 633 mmHg 88%
    06:00 +19°C° 0.6 mm 1 mps 633 mmHg 86%
    07:00 +20°C° 0.6 mm 1 mps 634 mmHg 85%
    08:00 +20°C° 0.6 mm 1 mps 634 mmHg 83%
    09:00 +21°C° 1.2 mm 1 mps 634 mmHg 80%
    10:00 +22°C° 1.2 mm 1 mps 634 mmHg 77%
    11:00 +23°C° 1.2 mm 2 mps 634 mmHg 74%
    12:00 +23°C° 1.3 mm 2 mps 634 mmHg 73%
    13:00 +23°C° 1.3 mm 2 mps 633 mmHg 73%
    14:00 +23°C° 1.3 mm 2 mps 632 mmHg 72%
    15:00 +21°C° 1.1 mm 2 mps 632 mmHg 75%
    16:00 +21°C° 1.1 mm 1 mps 632 mmHg 79%
    17:00 +21°C° 1.1 mm 1 mps 632 mmHg 82%
    18:00 +20°C° 0.7 mm 1 mps 632 mmHg 84%
    19:00 +20°C° 0.7 mm 1 mps 633 mmHg 85%
    20:00 +20°C° 0.7 mm 1 mps 633 mmHg 87%
    21:00 +19°C° 0.8 mm 1 mps 633 mmHg 88%
    22:00 +19°C° 0.8 mm 1 mps 633 mmHg 89%
    23:00 +18°C° 0.8 mm 2 mps 633 mmHg 90%

    Day after tomorrow, 12 December, Wednesday

    Time Temperature Precipitation Wind Pressure Humidity
    00:00 +18°C° 0.7 mm 2 mps 633 mmHg 90%
    01:00 +18°C° 0.7 mm 2 mps 633 mmHg 90%
    02:00 +18°C° 0.7 mm 2 mps 632 mmHg 91%
    03:00 +17°C° 0.4 mm 2 mps 632 mmHg 91%
    04:00 +18°C° 0.4 mm 1 mps 632 mmHg 91%
    05:00 +18°C° 0.4 mm 1 mps 633 mmHg 92%
    06:00 +19°C° 0.1 mm 1 mps 633 mmHg 88%
    07:00 +20°C° 0.1 mm 1 mps 634 mmHg 84%
    08:00 +21°C° 0.1 mm 1 mps 635 mmHg 79%
    09:00 +22°C° 0.3 mm 1 mps 635 mmHg 74%
    10:00 +23°C° 0.3 mm 1 mps 635 mmHg 68%
    11:00 +25°C° 0.3 mm 2 mps 635 mmHg 62%
    12:00 +25°C° 1 mm 1 mps 634 mmHg 62%
    13:00 +25°C° 1 mm 1 mps 633 mmHg 63%
    14:00 +24°C° 1 mm 1 mps 633 mmHg 64%
    15:00 +24°C° 0.9 mm 1 mps 632 mmHg 68%
    16:00 +23°C° 0.9 mm 1 mps 632 mmHg 72%
    17:00 +22°C° 0.9 mm 1 mps 632 mmHg 76%
    18:00 +21°C° 0.6 mm 1 mps 632 mmHg 79%
    19:00 +21°C° 0.6 mm 1 mps 633 mmHg 81%
    20:00 +20°C° 0.6 mm 1 mps 633 mmHg 83%
    21:00 +20°C° 0.5 mm 1 mps 633 mmHg 85%
    22:00 +20°C° 0.5 mm 1 mps 633 mmHg 86%
    23:00 +19°C° 0.5 mm 1 mps 633 mmHg 87%

    13 December, Thursday

    Time Temperature Precipitation Wind Pressure Humidity
    00:00 +19°C° 0.5 mm 1 mps 633 mmHg 87%
    01:00 +19°C° 0.5 mm 1 mps 633 mmHg 87%
    02:00 +17°C° 0.5 mm 0 mps 632 mmHg 87%
    03:00 +17°C° 0.2 mm 0 mps 632 mmHg 87%
    04:00 +17°C° 0.2 mm 0 mps 633 mmHg 87%
    05:00 +16°C° 0.2 mm 0 mps 633 mmHg 87%
    06:00 +18°C° 0 mm 0 mps 634 mmHg 83%
    07:00 +19°C° 0 mm 0 mps 635 mmHg 78%
    08:00 +20°C° 0 mm 0 mps 636 mmHg 73%
    09:00 +24°C° 0.2 mm 1 mps 636 mmHg 65%
    10:00 +25°C° 0.2 mm 1 mps 636 mmHg 58%
    11:00 +27°C° 0.2 mm 1 mps 636 mmHg 50%
    12:00 +27°C° 0.6 mm 1 mps 635 mmHg 51%
    13:00 +26°C° 0.6 mm 1 mps 634 mmHg 51%
    14:00 +26°C° 0.6 mm 2 mps 633 mmHg 52%
    15:00 +25°C° 0.6 mm 2 mps 633 mmHg 56%
    16:00 +24°C° 0.6 mm 2 mps 633 mmHg 60%
    17:00 +24°C° 0.6 mm 2 mps 632 mmHg 64%
    18:00 +23°C° 0 mm 1 mps 633 mmHg 69%
    19:00 +22°C° 0 mm 1 mps 633 mmHg 73%
    20:00 +21°C° 0 mm 1 mps 633 mmHg 77%
    21:00 +20°C° 0 mm 1 mps 633 mmHg 79%
    22:00 +20°C° 0 mm 1 mps 633 mmHg 81%
    23:00 +20°C° 0 mm 1 mps 633 mmHg 82%

    14 December, Friday

    Time Temperature Precipitation Wind Pressure Humidity
    00:00 +19°C° 0.1 mm 1 mps 633 mmHg 83%
    01:00 +19°C° 0.1 mm 1 mps 632 mmHg 85%
    02:00 +19°C° 0.1 mm 1 mps 632 mmHg 86%
    03:00 +18°C° 0 mm 1 mps 632 mmHg 87%
    04:00 +18°C° 0 mm 1 mps 632 mmHg 89%
    05:00 +18°C° 0 mm 1 mps 633 mmHg 90%
    06:00 +20°C° 0 mm 1 mps 634 mmHg 81%
    07:00 +22°C° 0 mm 1 mps 635 mmHg 73%
    08:00 +23°C° 0 mm 1 mps 636 mmHg 64%
    09:00 +25°C° 0.1 mm 1 mps 636 mmHg 58%
    10:00 +27°C° 0.1 mm 2 mps 635 mmHg 51%
    11:00 +28°C° 0.1 mm 2 mps 635 mmHg 45%
    12:00 +28°C° 0.3 mm 2 mps 634 mmHg 45%
    13:00 +28°C° 0.3 mm 1 mps 634 mmHg 44%
    14:00 +28°C° 0.3 mm 1 mps 633 mmHg 44%
    15:00 +28°C° 0.1 mm 1 mps 633 mmHg 46%
    16:00 +27°C° 0.1 mm 1 mps 633 mmHg 49%
    17:00 +26°C° 0.1 mm 1 mps 632 mmHg 51%
    18:00 +25°C° 0.2 mm 1 mps 633 mmHg 55%
    19:00 +24°C° 0.2 mm 1 mps 633 mmHg 60%
    20:00 +21°C° 0.2 mm 0 mps 633 mmHg 65%
    21:00 +22°C° 0.5 mm 1 mps 633 mmHg 68%
    22:00 +21°C° 0.5 mm 1 mps 633 mmHg 72%
    23:00 +21°C° 0.5 mm 1 mps 633 mmHg 76%

    15 December, Saturday

    Time Temperature Precipitation Wind Pressure Humidity
    00:00 +20°C° 0.4 mm 1 mps 633 mmHg 79%
    01:00 +20°C° 0.4 mm 1 mps 632 mmHg 82%
    02:00 +19°C° 0.4 mm 1 mps 632 mmHg 85%
    03:00 +19°C° 0 mm 1 mps 632 mmHg 86%
    04:00 +19°C° 0 mm 1 mps 632 mmHg 87%
    05:00 +18°C° 0 mm 1 mps 633 mmHg 88%
    06:00 +20°C° 0 mm 1 mps 633 mmHg 80%
    07:00 +21°C° 0 mm 2 mps 634 mmHg 72%
    08:00 +24°C° 0 mm 2 mps 635 mmHg 64%
    09:00 +25°C° 0.1 mm 2 mps 635 mmHg 57%
    10:00 +27°C° 0.1 mm 2 mps 635 mmHg 50%
    11:00 +29°C° 0.1 mm 2 mps 635 mmHg 43%
    12:00 +29°C° 0.3 mm 2 mps 634 mmHg 42%
    13:00 +29°C° 0.3 mm 2 mps 634 mmHg 42%
    14:00 +29°C° 0.3 mm 2 mps 633 mmHg 42%
    15:00 +28°C° 0.3 mm 1 mps 633 mmHg 45%
    16:00 +27°C° 0.3 mm 1 mps 632 mmHg 47%
    17:00 +26°C° 0.3 mm 1 mps 632 mmHg 50%
    18:00 +25°C° 0 mm 1 mps 632 mmHg 55%
    19:00 +24°C° 0 mm 1 mps 633 mmHg 60%
    20:00 +22°C° 0 mm 1 mps 633 mmHg 64%
    21:00 +22°C° 0.3 mm 1 mps 633 mmHg 68%
    22:00 +21°C° 0.3 mm 1 mps 633 mmHg 72%
    23:00 +21°C° 0.3 mm 1 mps 633 mmHg 76%
    Show more